Hourly Data Report for October 16, 2016

All times are specified in Local Standard Time (LST). Add 1 hour to adjust for Daylight Saving Time where and when it is observed.

POND INLET A
NUNAVUT

72°41'22.000" N
77°58'08.000" W
61.60 m
2403206
71095
YIO

Download Data

Hourly Data (October 2016)
Hourly Data Report for October 16, 2016
Temp Definition
°C
Dew Point Temp Definition
°C
Rel Hum Definition
%
Wind Dir Definition
10's deg

Wind Spd Definition
km/h
Visibility Definition
km
Stn Press Definition
kPa
Hmdx Definition


Wind Chill Definition


Weather Definition


TIME
00:00 Legend Double Dagger -6.9 -8.9 86 15 11 16.1 100.08   -12 Snow
01:00 Legend Double Dagger -6.0 -7.1 92 26 22 8.1 100.12   -13 Snow
02:00 Legend Double Dagger -6.4 -7.6 91 27 22 16.1 100.18   -14 Snow
03:00 Legend Double Dagger -6.6 -9.0 83 28 21 16.1 100.24   -14 Snow
04:00 Legend Double Dagger -6.9 -8.1 91 28 24 4.8 100.29   -15 Snow
05:00 Legend Double Dagger -7.4 -9.1 88 27 26 16.1 100.31   -16 Snow
06:00 Legend Double Dagger -8.0 -9.5 89 28 13 16.1 100.36   -14 LegendNANA
07:00 Legend Double Dagger -7.8 -9.6 87 28 13 16.1 100.38   -14 LegendNANA
08:00 Legend Double Dagger -8.0 -9.5 89 28 5 16.1 100.38   -11 LegendNANA
09:00 Legend Double Dagger -9.0 -10.4 90 15 9 16.1 100.39   -14 LegendNANA
10:00 Legend Double Dagger -10.8 -12.2 89 18 11 16.1 100.39   -17 LegendNANA
11:00 Legend Double Dagger -11.1 -12.4 90 16 11 16.1 100.40   -17 LegendNANA
12:00 Legend Double Dagger -10.5 -12.7 84 15 17 16.1 100.41   -18 LegendNANA
13:00 Legend Double Dagger -11.0 -14.4 76 15 18 16.1 100.41   -19 LegendNANA
14:00 Legend Double Dagger -9.7 -14.0 71 14 18 16.1 100.40   -17 LegendNANA
15:00 Legend Double Dagger -9.9 -13.5 75 16 13 16.1 100.40   -16 LegendNANA
16:00 Legend Double Dagger -9.5 -12.7 78 19 17 16.1 100.40   -17 LegendNANA
17:00 Legend Double Dagger -8.9 -12.7 74 20 18 16.1 100.39   -16 LegendNANA
18:00 Legend Double Dagger -10.0 -12.8 80 17 17 16.1 100.34   -17 LegendNANA
19:00 Legend Double Dagger -9.2 -13.0 74 14 11 16.1 100.32   -15 LegendNANA
20:00 Legend Double Dagger -8.0 -11.3 78 LegendMM 4 6.4 100.29   -10 Snow
21:00 Legend Double Dagger -8.4 -10.8 83 6 13 9.7 100.26   -14 Snow
22:00 Legend Double Dagger -8.4 -9.5 92 6 13 2.0 100.24   -14 Snow
23:00 Legend Double Dagger -8.8 -9.9 92 7 17 12.9 100.21   -16 Snow

Notes on Data Quality.

Legend

  • E = Estimated
  • M = Missing
  • NA = Not Available
  • ‡ = Partner data that is not subject to review by the National Climate Archives
Date modified: